Tracking 30995 objects as of 5-Jul-2025
HD Live streaming from Space Station
objects crossing your sky now

SL-12 R/B(AUX MOTOR) DEB

Track SL-12 R/B(AUX MOTOR) DEB now!
10-day predictions


NORAD ID: 41806
Int'l Code: 2006-062L
Perigee: 649.4 km
Apogee: 19,362.7 km
Inclination: 64.3 °
Period: 347.6 minutes
Semi major axis: 16377 km
RCS: Unknown
Launch date: December 25, 2006
Source: Commonwealth of Independent States (former USSR) (CIS)
Launch site: TYURATAM MISSILE AND SPACE COMPLEX (TTMTR)

Note: This is SATELLITE DEBRIS
Your satellite tracking list
Your tracking list is empty




NASA's NSSDC Master Catalog

Two Line Element Set (TLE):
1 41806U 06062L   25183.90680349  .00000073  00000-0  23103-3 0  9993
2 41806  64.3085 153.1084 5713282 325.4730   8.0526  4.14238985134622
Source of the keplerian elements: AFSPC